• en Belgique
  • Liste des pays
  • À 7 jours
  • Température de l'eau
  • Carte satellitaire
  • Carte météo
  • Widgets météo
  • user-avatar
    Se connecter

    Météo par heure à Yulara

    Ce jour, 24 Juillet, Lundi

    Heure Température Précipitation Vent Pression Humidité
    00:00 +20°C° 0 mm 1 m/s 720 mmHg 32%
    01:00 +19°C° 0 mm 1 m/s 720 mmHg 31%
    02:00 +18°C° 0 mm 2 m/s 720 mmHg 31%
    03:00 +18°C° 0 mm 3 m/s 721 mmHg 30%
    04:00 +17°C° 0 mm 3 m/s 721 mmHg 31%
    05:00 +17°C° 0 mm 3 m/s 721 mmHg 32%
    06:00 +16°C° 0 mm 3 m/s 721 mmHg 33%
    07:00 +18°C° 0 mm 3 m/s 721 mmHg 30%
    08:00 +19°C° 0 mm 4 m/s 722 mmHg 28%
    09:00 +21°C° 0 mm 3 m/s 722 mmHg 26%
    10:00 +22°C° 0 mm 4 m/s 722 mmHg 23%
    11:00 +25°C° 0 mm 4 m/s 722 mmHg 21%
    12:00 +27°C° 0 mm 5 m/s 722 mmHg 18%
    13:00 +27°C° 0 mm 4 m/s 721 mmHg 18%
    14:00 +27°C° 0 mm 3 m/s 721 mmHg 17%
    15:00 +28°C° 0 mm 3 m/s 721 mmHg 16%
    16:00 +26°C° 0 mm 2 m/s 720 mmHg 19%
    17:00 +24°C° 0 mm 1 m/s 720 mmHg 22%
    18:00 +22°C° 0 mm 1 m/s 720 mmHg 25%
    19:00 +22°C° 0 mm 1 m/s 720 mmHg 26%
    20:00 +21°C° 0 mm 1 m/s 721 mmHg 27%
    21:00 +20°C° 0 mm 1 m/s 721 mmHg 28%
    22:00 +20°C° 0 mm 1 m/s 721 mmHg 28%
    23:00 +20°C° 0 mm 1 m/s 721 mmHg 28%

    Demain, 25 Juillet, Mardi

    Heure Température Précipitation Vent Pression Humidité
    00:00 +19°C° 0 mm 1 m/s 721 mmHg 28%
    01:00 +18°C° 0 mm 2 m/s 721 mmHg 28%
    02:00 +18°C° 0 mm 2 m/s 721 mmHg 28%
    03:00 +17°C° 0 mm 3 m/s 721 mmHg 28%
    04:00 +17°C° 0 mm 3 m/s 722 mmHg 29%
    05:00 +16°C° 0 mm 3 m/s 722 mmHg 29%
    06:00 +16°C° 0 mm 3 m/s 722 mmHg 30%
    07:00 +17°C° 0 mm 3 m/s 722 mmHg 27%
    08:00 +19°C° 0 mm 3 m/s 723 mmHg 25%
    09:00 +20°C° 0 mm 3 m/s 723 mmHg 23%
    10:00 +22°C° 0 mm 3 m/s 723 mmHg 21%
    11:00 +25°C° 0 mm 3 m/s 723 mmHg 19%
    12:00 +26°C° 0 mm 3 m/s 723 mmHg 17%
    13:00 +27°C° 0 mm 3 m/s 722 mmHg 16%
    14:00 +27°C° 0 mm 2 m/s 722 mmHg 16%
    15:00 +28°C° 0 mm 2 m/s 721 mmHg 16%
    16:00 +26°C° 0 mm 1 m/s 721 mmHg 19%
    17:00 +24°C° 0 mm 1 m/s 721 mmHg 22%
    18:00 +23°C° 0 mm 1 m/s 721 mmHg 25%
    19:00 +22°C° 0 mm 1 m/s 721 mmHg 25%
    20:00 +22°C° 0 mm 1 m/s 721 mmHg 25%
    21:00 +20°C° 0 mm 2 m/s 722 mmHg 24%
    22:00 +20°C° 0 mm 2 m/s 722 mmHg 25%
    23:00 +20°C° 0 mm 2 m/s 722 mmHg 25%

    Après-demain, 26 Juillet, Mercredi

    Heure Température Précipitation Vent Pression Humidité
    00:00 +19°C° 0 mm 3 m/s 722 mmHg 26%
    01:00 +18°C° 0 mm 3 m/s 722 mmHg 27%
    02:00 +17°C° 0 mm 2 m/s 722 mmHg 28%
    03:00 +17°C° 0 mm 2 m/s 722 mmHg 29%
    04:00 +16°C° 0 mm 2 m/s 722 mmHg 30%
    05:00 +15°C° 0 mm 2 m/s 722 mmHg 30%
    06:00 +15°C° 0 mm 2 m/s 722 mmHg 31%
    07:00 +17°C° 0 mm 2 m/s 723 mmHg 28%
    08:00 +18°C° 0 mm 2 m/s 723 mmHg 25%
    09:00 +20°C° 0 mm 2 m/s 724 mmHg 22%
    10:00 +22°C° 0 mm 3 m/s 724 mmHg 20%
    11:00 +25°C° 0 mm 3 m/s 723 mmHg 18%
    12:00 +26°C° 0 mm 4 m/s 723 mmHg 17%
    13:00 +27°C° 0 mm 4 m/s 722 mmHg 16%
    14:00 +27°C° 0 mm 5 m/s 722 mmHg 16%
    15:00 +28°C° 0 mm 5 m/s 721 mmHg 16%
    16:00 +27°C° 0 mm 4 m/s 721 mmHg 17%
    17:00 +25°C° 0 mm 4 m/s 721 mmHg 19%
    18:00 +24°C° 0 mm 3 m/s 721 mmHg 21%
    19:00 +22°C° 0 mm 3 m/s 722 mmHg 22%
    20:00 +21°C° 0 mm 3 m/s 722 mmHg 23%
    21:00 +20°C° 0 mm 4 m/s 723 mmHg 23%
    22:00 +20°C° 0 mm 4 m/s 723 mmHg 24%
    23:00 +19°C° 0 mm 4 m/s 723 mmHg 25%

    27 Juillet, Jeudi

    Heure Température Précipitation Vent Pression Humidité
    00:00 +18°C° 0 mm 4 m/s 723 mmHg 26%
    01:00 +17°C° 0 mm 4 m/s 722 mmHg 27%
    02:00 +17°C° 0 mm 4 m/s 722 mmHg 28%
    03:00 +15°C° 0 mm 4 m/s 722 mmHg 28%
    04:00 +16°C° 0 mm 3 m/s 722 mmHg 30%
    05:00 +14°C° 0 mm 3 m/s 722 mmHg 31%
    06:00 +15°C° 0 mm 2 m/s 722 mmHg 32%
    07:00 +16°C° 0 mm 2 m/s 723 mmHg 31%
    08:00 +18°C° 0 mm 2 m/s 723 mmHg 29%
    09:00 +19°C° 0 mm 3 m/s 724 mmHg 27%
    10:00 +21°C° 0 mm 3 m/s 724 mmHg 24%
    11:00 +23°C° 0 mm 4 m/s 724 mmHg 22%
    12:00 +26°C° 0 mm 4 m/s 723 mmHg 19%
    13:00 +26°C° 0 mm 4 m/s 723 mmHg 18%
    14:00 +27°C° 0 mm 3 m/s 722 mmHg 17%
    15:00 +27°C° 0 mm 2 m/s 721 mmHg 15%
    16:00 +25°C° 0 mm 2 m/s 721 mmHg 17%
    17:00 +24°C° 0 mm 2 m/s 721 mmHg 19%
    18:00 +22°C° 0 mm 1 m/s 721 mmHg 21%
    19:00 +21°C° 0 mm 2 m/s 721 mmHg 22%
    20:00 +20°C° 0 mm 2 m/s 722 mmHg 22%
    21:00 +20°C° 0 mm 2 m/s 722 mmHg 22%
    22:00 +19°C° 0 mm 3 m/s 722 mmHg 23%
    23:00 +19°C° 0 mm 3 m/s 722 mmHg 23%

    28 Juillet, Vendredi

    Heure Température Précipitation Vent Pression Humidité
    00:00 +18°C° 0 mm 3 m/s 722 mmHg 24%
    01:00 +17°C° 0 mm 3 m/s 722 mmHg 25%
    02:00 +17°C° 0 mm 3 m/s 721 mmHg 26%
    03:00 +16°C° 0 mm 3 m/s 721 mmHg 26%
    04:00 +14°C° 0 mm 3 m/s 721 mmHg 27%
    05:00 +14°C° 0 mm 3 m/s 721 mmHg 28%
    06:00 +13°C° 0 mm 3 m/s 721 mmHg 28%
    07:00 +16°C° 0 mm 3 m/s 722 mmHg 26%
    08:00 +17°C° 0 mm 3 m/s 722 mmHg 25%
    09:00 +19°C° 0 mm 3 m/s 723 mmHg 23%
    10:00 +21°C° 0 mm 4 m/s 723 mmHg 21%
    11:00 +23°C° 0 mm 5 m/s 722 mmHg 19%
    12:00 +26°C° 0 mm 5 m/s 722 mmHg 17%
    13:00 +27°C° 0 mm 5 m/s 721 mmHg 16%
    14:00 +27°C° 0 mm 5 m/s 721 mmHg 15%
    15:00 +28°C° 0 mm 5 m/s 720 mmHg 14%
    16:00 +26°C° 0 mm 4 m/s 720 mmHg 16%
    17:00 +25°C° 0 mm 3 m/s 720 mmHg 17%
    18:00 +22°C° 0 mm 3 m/s 720 mmHg 19%
    19:00 +21°C° 0 mm 2 m/s 720 mmHg 20%
    20:00 +20°C° 0 mm 2 m/s 720 mmHg 21%
    21:00 +20°C° 0 mm 2 m/s 721 mmHg 22%
    22:00 +19°C° 0 mm 2 m/s 721 mmHg 22%
    23:00 +19°C° 0 mm 2 m/s 720 mmHg 23%

    29 Juillet, Samedi

    Heure Température Précipitation Vent Pression Humidité
    00:00 +18°C° 0 mm 2 m/s 720 mmHg 23%
    01:00 +18°C° 0 mm 2 m/s 720 mmHg 24%
    02:00 +17°C° 0 mm 2 m/s 720 mmHg 26%
    03:00 +17°C° 0 mm 2 m/s 719 mmHg 27%
    04:00 +17°C° 0 mm 3 m/s 719 mmHg 27%
    05:00 +16°C° 0 mm 3 m/s 719 mmHg 27%
    06:00 +15°C° 0 mm 4 m/s 719 mmHg 28%
    07:00 +18°C° 0 mm 4 m/s 720 mmHg 26%
    08:00 +19°C° 0 mm 5 m/s 720 mmHg 25%
    09:00 +21°C° 0 mm 6 m/s 720 mmHg 23%
    10:00 +23°C° 0 mm 7 m/s 720 mmHg 21%
    11:00 +26°C° 0 mm 8 m/s 720 mmHg 19%
    12:00 +28°C° 0 mm 8 m/s 720 mmHg 17%
    13:00 +28°C° 0 mm 8 m/s 719 mmHg 17%
    14:00 +29°C° 0 mm 8 m/s 719 mmHg 16%
    15:00 +31°C° 0 mm 8 m/s 718 mmHg 15%
    16:00 +28°C° 0 mm 7 m/s 718 mmHg 17%
    17:00 +27°C° 0 mm 6 m/s 718 mmHg 19%
    18:00 +25°C° 0 mm 5 m/s 719 mmHg 22%
    19:00 +23°C° 0 mm 5 m/s 719 mmHg 31%
    20:00 +21°C° 0 mm 6 m/s 719 mmHg 40%
    21:00 +18°C° 0 mm 7 m/s 720 mmHg 49%
    22:00 +17°C° 0 mm 7 m/s 720 mmHg 52%
    23:00 +16°C° 0 mm 6 m/s 720 mmHg 56%
    Voir plus